Shungnak AP, Shungnak, AK, AK

11:41 PM AKDT on May 26, 2017 (GMT -0800)
Shungnak AP, Shungnak, AK

Weather History for PAGH - January, 2014

Change the Weather History Date:

Wednesday, January 15, 2014

  Actual Average (PAFM) Record (PAFM)
Temperature  
Mean Temperature -23 °F -  
Max Temperature -14 °F 3 °F 37 °F (1997)
Min Temperature -32 °F -4 °F -67 °F (1991)
Degree Days  
Heating Degree Days 88    
Moisture  
Dew Point -28 °F    
Average Humidity 75    
Maximum Humidity 82    
Minimum Humidity 69    
Precipitation  
Precipitation 0.00 in - - ()
Sea Level Pressure  
Sea Level Pressure 29.96 in    
Wind  
Wind Speed 4 mph (East)    
Max Wind Speed 9 mph    
Max Gust Speed -    
Visibility 10 miles    
Events      
Averages and records for this station are not official NWS values.
T = Trace of Precipitation, MM = Missing Value Source: NWS Daily Summary

Daily Weather History Graph

Daily Weather History Graph

Search for Another Location

Airport or City:

Trip Planner

Search our weather history database for the weather conditions in past years. The results will help you decide how hot, cold, wet, or windy it might be!

Date:

Astronomy

Jan. 15, 2014 Rise Set
Actual Time 11:35 AM AKST 3:41 PM AKST
Civil Twilight 10:10 AM AKST 5:07 PM AKST
Nautical Twilight 8:56 AM AKST 6:21 PM AKST
Astronomical Twilight 7:51 AM AKST 7:25 PM AKST
Moon 4:35 PM AKST (1/15) 10:17 AM AKST (1/15)
Length of Visible Light 6h 56m
Length of Day
4h 05m
Full, 100% of the Moon is Illuminated
Jan 15
Full
Jan 15
Full
Jan 23
Last Quarter
Jan 30
New
Feb 6
First Quarter

Hourly Weather History & Observations

Time (AKST) Temp. Windchill Dew Point Humidity Pressure Visibility Wind Dir Wind Speed Gust Speed Precip Events Conditions
12:57 AM -14.1 °F -28.3 °F -18.0 °F 82% 29.72 in 10.0 mi WNW 5.8 mph - N/A   Clear
1:57 AM -16.1 °F -28.6 °F -20.9 °F 79% 29.75 in 10.0 mi North 4.6 mph - N/A   Clear
2:57 AM -16.1 °F -26.2 °F -20.9 °F 79% 29.78 in 10.0 mi North 3.5 mph - N/A   Clear
3:57 AM -16.1 °F - -20.9 °F 79% 29.81 in 10.0 mi Calm Calm - N/A   Clear
4:57 AM -16.1 °F - -20.9 °F 79% 29.83 in 10.0 mi Calm Calm - N/A   Clear
5:57 AM -17.0 °F -27.2 °F -22.0 °F 78% 29.86 in 10.0 mi WSW 3.5 mph - N/A   Clear
6:57 AM -24.0 °F - -29.9 °F 74% 29.90 in 10.0 mi Calm Calm - N/A   Clear
7:57 AM -20.9 °F - -27.0 °F 73% 29.92 in 10.0 mi Calm Calm - N/A   Clear
8:57 AM -23.1 °F -34.2 °F -29.0 °F 74% 29.94 in 10.0 mi East 3.5 mph - N/A   Clear
9:57 AM -27.0 °F -48.5 °F -33.0 °F 73% 29.96 in 10.0 mi ESE 9.2 mph - N/A   Clear
10:57 AM -25.1 °F -43.1 °F -29.9 °F 78% 29.98 in 10.0 mi SE 6.9 mph - N/A   Clear
11:57 AM -25.1 °F -43.1 °F -32.1 °F 70% 30.00 in 10.0 mi East 6.9 mph - N/A   Clear
12:57 PM -23.1 °F -36.8 °F -29.9 °F 70% 30.02 in 10.0 mi East 4.6 mph - N/A   Clear
1:57 PM -25.1 °F -44.7 °F -31.0 °F 74% 30.03 in 10.0 mi ESE 8.1 mph - N/A   Clear
2:57 PM -25.1 °F -44.7 °F -31.0 °F 74% 30.02 in 10.0 mi ESE 8.1 mph - N/A   Clear
3:57 PM -27.0 °F -38.7 °F -34.1 °F 69% 30.04 in 10.0 mi East 3.5 mph - N/A   Clear
4:57 PM -27.9 °F -39.8 °F -34.1 °F 73% 30.04 in 5.0 mi East 3.5 mph - N/A   Haze
5:57 PM -29.9 °F - - N/A% 30.05 in 10.0 mi Calm Calm - N/A   Clear
6:57 PM -26.0 °F -37.5 °F -32.1 °F 73% 30.04 in 10.0 mi South 3.5 mph - N/A   Clear
7:57 PM -31.0 °F -43.3 °F - N/A% 30.05 in 10.0 mi East 3.5 mph - N/A   Clear
8:57 PM -29.0 °F - -36.0 °F 69% 30.06 in 5.0 mi Calm Calm - N/A   Haze
9:57 PM -31.0 °F - - N/A% 30.05 in 9.0 mi Calm Calm - N/A   Clear
10:57 PM -32.1 °F -44.5 °F - N/A% 30.04 in 10.0 mi WNW 3.5 mph - N/A   Clear
11:57 PM -31.0 °F - - N/A% 30.04 in 10.0 mi Calm Calm - N/A   Clear